Seward, AK

6:52 AM AKDT on August 29, 2016 (GMT -0800)
Seward

Weather History for PAWD - January, 2014

Change the Weather History Date:

Saturday, January 4, 2014

  Actual Average Record
Temperature  
Mean Temperature 36 °F -  
Max Temperature 41 °F 29 °F 45 °F (1953)
Min Temperature 33 °F 18 °F -8 °F (1975)
Degree Days  
Heating Degree Days 29    
Moisture  
Dew Point 32 °F    
Average Humidity 88    
Maximum Humidity 96    
Minimum Humidity 67    
Precipitation  
Precipitation 0.28 in - - ()
Sea Level Pressure  
Sea Level Pressure 29.82 in    
Wind  
Wind Speed 2 mph (NW)    
Max Wind Speed 13 mph    
Max Gust Speed 21 mph    
Visibility 9 miles    
Events Rain    
Averages and records for this station are not official NWS values.
T = Trace of Precipitation, MM = Missing Value Source: NWS Daily Summary

Daily Weather History Graph

Daily Weather History Graph

Search for Another Location

Airport or City:

Trip Planner

Search our weather history database for the weather conditions in past years. The results will help you decide how hot, cold, wet, or windy it might be!

Date:

Astronomy

Jan. 04, 2014 Rise Set
Actual Time 9:58 AM AKST 4:06 PM AKST
Civil Twilight 9:02 AM AKST 5:03 PM AKST
Nautical Twilight 8:06 AM AKST 5:59 PM AKST
Astronomical Twilight 7:15 AM AKST 6:50 PM AKST
Moon 10:57 AM AKST (1/4) 9:59 PM AKST (1/4)
Length of Visible Light 8h 00m
Length of Day
6h 08m
Waxing Crescent, 16% of the Moon is Illuminated
Jan 4
Waxing Crescent
Jan 7
First Quarter
Jan 15
Full
Jan 23
Last Quarter
Jan 30
New

Hourly Weather History & Observations

Time (AKST) Temp. Windchill Dew Point Humidity Pressure Visibility Wind Dir Wind Speed Gust Speed Precip Events Conditions
12:53 AM 33.1 °F - 32.0 °F 96% 30.21 in 10.0 mi Calm Calm - N/A   Overcast
1:53 AM 33.1 °F - 30.9 °F 92% 30.19 in 10.0 mi Calm Calm - N/A   Overcast
3:53 AM 33.1 °F 30.0 °F 30.9 °F 92% 30.15 in 10.0 mi NNW 3.5 mph - N/A   Overcast
4:53 AM 33.1 °F - 32.0 °F 96% 30.09 in 10.0 mi Calm Calm - N/A   Overcast
5:53 AM 34.0 °F - 32.0 °F 92% 30.06 in 10.0 mi Calm Calm - N/A   Overcast
6:31 AM 33.8 °F 30.8 °F 32.0 °F 93% 30.04 in 10.0 mi ENE 3.5 mph - 0.00 in Rain Light Rain
6:44 AM 33.8 °F - 32.0 °F 93% 30.03 in 8.0 mi Calm Calm - 0.01 in Rain Light Rain
6:53 AM 33.1 °F - 32.0 °F 96% 30.03 in 9.0 mi Calm Calm - 0.01 in Rain Light Rain
7:33 AM 33.8 °F - 32.0 °F 93% 29.99 in 8.0 mi Calm Calm - 0.02 in Rain Light Rain
7:43 AM 33.8 °F - 32.0 °F 93% 29.99 in 8.0 mi Calm Calm - 0.02 in Rain Light Rain
7:53 AM 34.0 °F - 33.1 °F 96% 29.99 in 9.0 mi Calm Calm - 0.02 in Rain Light Rain
8:53 AM 33.1 °F - 32.0 °F 96% 29.95 in 8.0 mi Calm Calm - 0.00 in   Overcast
9:53 AM 34.0 °F 29.8 °F 33.1 °F 96% 29.91 in 10.0 mi SW 4.6 mph - N/A   Overcast
10:53 AM 34.0 °F - 33.1 °F 96% 29.88 in 10.0 mi Calm Calm - N/A   Overcast
11:39 AM 35.6 °F - 33.8 °F 93% 29.85 in 7.0 mi Calm Calm - 0.02 in Rain Light Rain
11:53 AM 36.0 °F - 34.0 °F 93% 29.85 in 6.0 mi Calm Calm - 0.03 in Rain Light Rain
12:53 PM 36.0 °F 32.1 °F 34.0 °F 93% 29.80 in 7.0 mi NW 4.6 mph - 0.05 in Rain Light Rain
1:53 PM 36.0 °F 32.1 °F 34.0 °F 93% 29.75 in 10.0 mi NW 4.6 mph - 0.05 in Rain Light Rain
2:02 PM 37.4 °F 32.1 °F 33.8 °F 87% 29.74 in 10.0 mi WNW 6.9 mph - 0.00 in Rain Light Rain
2:38 PM 37.4 °F 34.9 °F 33.8 °F 87% 29.73 in 9.0 mi NW 3.5 mph - 0.01 in Rain Light Rain
2:53 PM 37.9 °F 32.7 °F 33.1 °F 83% 29.73 in 10.0 mi West 6.9 mph - 0.01 in Rain Light Rain
3:14 PM 37.4 °F 34.9 °F 33.8 °F 87% 29.71 in 9.0 mi North 3.5 mph - 0.01 in Rain Light Rain
3:34 PM 37.4 °F - 33.8 °F 87% 29.70 in 10.0 mi Calm Calm - 0.01 in Rain Light Rain
3:53 PM 37.9 °F 33.5 °F 33.1 °F 83% 29.69 in 10.0 mi Variable 5.8 mph - 0.02 in Rain Light Rain
4:53 PM 37.0 °F 32.4 °F 33.1 °F 86% 29.68 in 10.0 mi NW 5.8 mph - 0.01 in Rain Light Rain
5:53 PM 37.0 °F 33.3 °F 33.1 °F 86% 29.67 in 9.0 mi WNW 4.6 mph - 0.03 in Rain Light Rain
6:53 PM 37.0 °F 32.4 °F 33.1 °F 86% 29.64 in 10.0 mi NNW 5.8 mph - 0.03 in Rain Light Rain
7:53 PM 37.0 °F 28.9 °F 32.0 °F 82% 29.61 in 10.0 mi NNW 12.7 mph - 0.02 in Rain Light Rain
8:01 PM 37.4 °F 29.3 °F 32.0 °F 81% 29.60 in 10.0 mi NNW 12.7 mph 20.7 mph 0.00 in Rain Light Rain
8:12 PM 37.4 °F 30.8 °F 30.2 °F 75% 29.59 in 10.0 mi NW 9.2 mph - 0.00 in   Overcast
8:53 PM 39.0 °F 33.4 °F 30.0 °F 70% 29.59 in 10.0 mi NW 8.1 mph - 0.00 in   Overcast
9:53 PM 39.0 °F 32.3 °F 30.9 °F 73% 29.56 in 10.0 mi NNW 10.4 mph - N/A   Overcast
10:53 PM 39.9 °F 37.8 °F 30.0 °F 68% 29.52 in 10.0 mi North 3.5 mph - N/A   Overcast
11:53 PM 41.0 °F 35.8 °F 30.9 °F 67% 29.51 in 10.0 mi North 8.1 mph 20.7 mph N/A   Overcast